Agen Poker Domino Online Terpercaya Di Indonesia

Buka Blokir Internet Sehat

Jackpot

Texas Poker Multi Jackpot System

Kini Telah hadir Jackpot SUPER ROYAL FLUSH

Kini Telah hadir Jackpot 2000 (khusus table VIP keatas).

Ikutilah global jackpot yang tersedia di system kami, dengan system jackpot terbaru dan pertama di indonesia, anda dapat membeli jackpot dengan harga 100 rupiah saja dan menangkan hadiahnya hingga puluhan juta rupiah.

Jackpot bukanlah suatu keharusan untuk dibeli, namun kami memberikan suatu fitur tambahan untuk member tercinta dari www.maenpoker.com.

Terdapat tiga pilihan harga jackpot yang bisa anda beli yaitu :100,500,1000 dan 2000(khusus table VIP Keatas) rupiah.

Hadiah dari Multi jackpot system www.maenpoker.com

  1. full house x 10 harga jackpot yang anda beli.
      (contoh:anda membeli 1000 maka:1000 X10 = 10.000)
  2. four of kind x 250 harga jackpot yang anda beli
      (contoh:anda membeli 1000 maka:1000 X250 = 250.000)
  3. Straight flush x 1200
      (contoh:anda membeli 1000 maka:1000 X1200 = 1.200.000)
  4. Royal flush x 10000 harga jackpot yang anda beli
      (contoh:anda membeli 1000 maka:1000 X10000 = 10.000.000)
  5. SUPER ROYAL FLUSH x 30000 harga jackpot yang anda beli
      (contoh:anda membeli 1000 maka:1000 X30000 = 30.000.000)

Kondisi kartu

  1. full house adalah kondisi kartu dimana kartu anda dan kartu tengah dengan total 7 kartu bisa mendapatkan nilai 5 kartu dengan kombinasi 1 tris(three of kind) dan 1 pair, contoh 3 kartu 10 dan 2 kartu 5
  2. Four of kind adalah kondisi kartu dimana kartu anda dan kartu tengah dengan total 7 kartu bisa mendapatkan nilai 5 kartu dengan kombinasi 4 kartu yang sama jumlah dan 1 kartu apapun juga contoh anda mendapatkan 4 buah kartu angka 3 dan 1 kartu apapun.
  3. Staright flush adalah kondisi kartu dimana kartu anda dan kartu tengah dengan total 7 kartu bisa mendapatkan nilai 5 kartu dengan kombinasi seri / staright dengan kembang yang sama contoh : urutan kartu dari angka 5, 6, 7, 8 , 9 10 dengan kembang yg sama misalnya as hati
  4. Royal flush adalah kondisi kartu dimana kartu anda dan kartu tengah dengan total 7 kartu bisa mendapatkan nilai 5 kartu dengan kombinasi seri / staright dengan kembang yang sama tetapi kartu tersebut haruslah dimulai dari 10. contoh 10, Queen, Jack, King dan aces dengan kembang yang sama
  5. Super Royal flush adalah kondisi kartu dimana Kedua kartu anda digabung dengan 3 kartu pertama meja haruslah royal flush. contoh kartu anda 10,Queen kembang sama dan 3 kartu pertama meja adalah Jack, King dan aces dengan kembang yang sama

Demikian adalah penjelasan dari Multi Jackpot www.maenpoker.com terima kasih dan selamat bermain salam hoki dari kami

Texas Poker Jackpot Winner

TOP SUPER ROYAL FLUSH
No.TanggalNamaPriceWin
125/05 22:34PARKIRAN36Super Royal flush15,000,000
225/05 18:22CORENETSuper Royal flush15,000,000
325/05 16:11YUUUAHH47Super Royal flush30,000,000
425/05 11:58PETEY14Super Royal flush15,000,000
524/05 16:53EBENG99Super Royal flush15,000,000
TOP ROYAL FLUSH
No.TanggalNamaPriceWin
126/05 00:43COUTINHO9Royal flush5,000,000
226/05 00:33POLE69Royal flush10,000,000
326/05 00:25QCLIKSRoyal flush20,000,000
425/05 23:37ANT543Royal flush5,000,000
525/05 23:36KIDSMASTERRoyal flush5,000,000
TOP STRAIGHT FLUSH
No.TanggalNamaPriceWin
126/05 01:03CHAKEISEIStraight Flush120,000
226/05 01:02KMIRINGStraight Flush1,200,000
326/05 01:00DWBTR0074Straight Flush120,000
426/05 00:58FREEDY74Straight Flush1,200,000
526/05 00:57HOKIIJP10Straight Flush120,000
LATEST JACKPOT
No.TanggalNamaPriceWin
126/05 01:04TEMPOYAK11Full House5,000
226/05 01:04NINA090Full House10,000
326/05 01:04FFHFour Of A Kind125,000
426/05 01:04J4503CIYBQFull House5,000
526/05 01:04ALEPHOKKYFull House10,000
626/05 01:04GIVARO50Full House10,000
726/05 01:04RONIPOFull House5,000
826/05 01:04Y4VOG6YD1SFull House10,000
926/05 01:04BOSR177Full House5,000
1026/05 01:04CPMFull House1,000
1126/05 01:04JOZZZ9999Full House1,000
1226/05 01:04HIMBO77Full House5,000
1326/05 01:04CHAKAY88Full House1,000
1426/05 01:04ENGANG82Full House1,000
1526/05 01:04DEWE02Full House10,000
1626/05 01:04QWINQWINFull House5,000
1726/05 01:04YAYOTFull House10,000
1826/05 01:04GITAYANAFull House1,000
1926/05 01:04SAJENG9Full House1,000
2026/05 01:04PAKMEL00Four Of A Kind125,000
2126/05 01:04ANGGIE008Full House1,000
2226/05 01:04D9CB2934Full House1,000
2326/05 01:04HGBOLFull House10,000
2426/05 01:04WAHYUBFull House1,000
2526/05 01:04HOME211Full House10,000
2626/05 01:04BEBY0807Full House10,000
2726/05 01:04MV413414Full House1,000
2826/05 01:04TRIASS_AXLFull House5,000
2926/05 01:04BETITOZFull House5,000
3026/05 01:04ITAMOOHUNGFull House5,000
3126/05 01:04ALLYSAKEYFull House5,000
3226/05 01:04INDRASUSAFull House10,000
3326/05 01:04FEBIALOFull House10,000
3426/05 01:04ANTUQIUFull House1,000
3526/05 01:04PARZI999Full House10,000
3626/05 01:04VAMPIRE12Full House5,000
3726/05 01:04MAT3OFull House20,000
3826/05 01:04EWAKO900Full House5,000
3926/05 01:04MAYSHA77Full House5,000
4026/05 01:04AGENDBLUESFull House5,000
4126/05 01:04FX8150Full House10,000
4226/05 01:04IP1K99Full House1,000
4326/05 01:04DENAJAKASFull House10,000
4426/05 01:04WARGA69Full House5,000
4526/05 01:04ACM1L4N0Full House5,000
4626/05 01:04LEP3RFull House5,000
4726/05 01:04B4N4R0Full House5,000
4826/05 01:04QEN1NJYK01Full House10,000
4926/05 01:04MIABILQISFull House1,000
5026/05 01:04D3D1K3NCUTFull House1,000

Domino Multi Jackpot System

Ikutilah global jackpot yang tersedia di system kami, dengan system jackpot terbaru dan pertama di indonesia, anda dapat membeli jackpot dengan harga 100 rupiah saja dan menangkan hadiahnya hingga puluhan juta rupiah.

Jackpot bukanlah suatu keharusan untuk dibeli, namun kami memberikan suatu fitur tambahan untuk member tercinta dari www.maenpoker.com.

Terdapat tiga pilihan harga jackpot yang bisa anda beli yaitu :100,500 dan 1000 rupiah.

Hadiah dari Multi jackpot system www.maenpoker.com

  1. Murni Kecil x 50 harga jackpot yang anda beli.
      (contoh:anda membeli 1000 maka:1000 X 50 = 50.000)
  2. Murni Besar x 50 harga jackpot yang anda beli
      (contoh:anda membeli 1000 maka:1000 X 50 = 50.000)
  3. BALAK x 100 harga jackpot yang anda beli
      (contoh:anda membeli 1000 maka:1000 X 100 = 100.000)
  4. ENAM DEWA x 6666 harga jackpot yang anda beli
      (contoh:anda membeli 1000 maka:1000 X 6666 = 6.666.000)

Demikian adalah penjelasan dari Multi Jackpot www.maenpoker.com terima kasih dan selamat bermain salam hoki dari kami

Domino Jackpot Winner

TOP ENAM DEWA
No.TanggalNamaPriceWin
125/05 22:16D041092murni enam666,600
225/05 21:17BALEC055murni enam666,600
325/05 20:31ILMIRANKmurni enam3,333,000
425/05 20:05SNI30860murni enam6,666,000
525/05 19:41KOANGBULUmurni enam3,333,000
TOP BALAK
No.TanggalNamaPriceWin
126/05 01:04DOGEbalak50,000
226/05 01:03DIKS777balak50,000
326/05 01:01KAKEK011balak50,000
426/05 01:00BERAW99balak50,000
526/05 00:58BUTONG79balak50,000
LATEST JACKPOT
No.TanggalNamaPriceWin
126/05 01:04DOGEbalak50,000
226/05 01:04ARTOTEKO96murni besar50,000
326/05 01:04MESDEDmurni kecil50,000
426/05 01:03MULY077murni kecil50,000
526/05 01:03DIKS777balak50,000
626/05 01:03STYLE930murni besar50,000
726/05 01:02TOKEASmurni besar50,000
826/05 01:02NOVIA089murni kecil5,000
926/05 01:01KAKEK011balak50,000
1026/05 01:01MASTER1412murni besar5,000
1126/05 01:00BERAW99balak50,000
1226/05 01:00DOOGOOKmurni besar5,000
1326/05 01:00BANGBUDmurni kecil50,000
1426/05 00:58BUTONG79balak50,000
1526/05 00:58C3A5F0E3murni besar25,000
1626/05 00:57C1T4T4murni kecil25,000
1726/05 00:57KYP123murni besar5,000
1826/05 00:55COMEBACK13murni besar50,000
1926/05 00:55DJAYA137murni besar5,000
2026/05 00:55ANALIYAHbalak100,000
2126/05 00:54B4TOS4I09murni kecil5,000
2226/05 00:54CW1E30murni besar50,000
2326/05 00:54UWOK1213murni besar50,000
2426/05 00:53GFIKmurni kecil50,000
2526/05 00:53ARDILES88murni kecil25,000
2626/05 00:53RUSTEZEmurni kecil5,000
2726/05 00:53KHOOLISmurni kecil25,000
2826/05 00:52SERBASALAHmurni besar50,000
2926/05 00:52RASKAL90murni besar50,000
3026/05 00:52ABBBRRIImurni kecil5,000
3126/05 00:52RAJADUIT99balak50,000
3226/05 00:51SAPRRH8PP4murni besar5,000
3326/05 00:51KARTU001murni kecil25,000
3426/05 00:51ACSMEmurni kecil5,000
3526/05 00:50KAR26murni kecil5,000
3626/05 00:50PUFFPASS11balak10,000
3726/05 00:50DUITKOSIPAmurni kecil25,000
3826/05 00:50XWW1ZODE8Tmurni kecil5,000
3926/05 00:50WIRRO_212murni kecil5,000
4026/05 00:49BUTONG79balak50,000
4126/05 00:49FERMAN21murni besar50,000
4226/05 00:49TEKNO_IDbalak100,000
4326/05 00:48CHANTIKA99murni besar50,000
4426/05 00:47GURUE88balak50,000
4526/05 00:47D041092murni kecil25,000
4626/05 00:47MANTAN_878murni besar25,000
4726/05 00:46BANGSA22murni besar50,000
4826/05 00:46ANAKRIAU77murni besar25,000
4926/05 00:46BANGSA22murni kecil50,000
5026/05 00:45BOZZAA702murni kecil50,000

Ceme Multi Jackpot System

Jackpot dilihat dari gabungan kartu pemain dengan kartu bandar. Bandar harus membeli jackpot sebanyak jumlah player yang sedang duduk. Sebagai contoh bila terdapat 3 pemain duduk bermain, dan bandar memutuskan untuk membeli jackpot Rp 1.000, maka pada periode tersebut bandar akan membeli jackpot sebanyak 3xRp1.000 = Rp3.000.

Jackpot bukanlah suatu keharusan untuk dibeli, namun kami memberikan suatu fitur tambahan untuk member tercinta dari www.maenpoker.com.

Terdapat tiga pilihan harga jackpot yang bisa anda beli yaitu :100,500 dan 1000 rupiah.

Hadiah dari Multi jackpot system www.maenpoker.com

  1. Murni Kecil x 50 harga jackpot yang anda beli.
      (contoh:anda membeli 1000 maka:1000 X 50 = 50.000)
  2. Murni Besar x 50 harga jackpot yang anda beli
      (contoh:anda membeli 1000 maka:1000 X 50 = 50.000)
  3. BALAK x 200 harga jackpot yang anda beli
      (contoh:anda membeli 1000 maka:1000 X 200 = 200.000)
  4. ENAM DEWA x 6666 harga jackpot yang anda beli
      (contoh:anda membeli 1000 maka:1000 X 6666 = 6.666.000)

Demikian adalah penjelasan dari Multi Jackpot www.maenpoker.com terima kasih dan selamat bermain salam hoki dari kami

Ceme Jackpot Winner

TOP ENAM DEWA
No.TanggalNamaPriceWin
126/05 01:04IYAYPAYAYmurni enam666,600
226/05 00:55KANZA778murni enam6,666,000
326/05 00:53YUPONK09murni enam3,333,000
426/05 00:48DWBT7341murni enam6,666,000
526/05 00:36COKRO003murni enam6,666,000
TOP BALAK
No.TanggalNamaPriceWin
126/05 01:04PAULWRbalak20,000
226/05 01:02DAEPObalak200,000
326/05 01:01KUBIM48balak200,000
426/05 01:01DADU78balak200,000
526/05 01:01SLANKER88balak20,000
LATEST JACKPOT
No.TanggalNamaPriceWin
126/05 01:04KICENGmurni kecil50,000
226/05 01:04LUCKY911WQmurni kecil50,000
326/05 01:04K_DOK_TERmurni besar25,000
426/05 01:04JEBLOKZ99murni besar5,000
526/05 01:04ANJ0murni besar50,000
626/05 01:04FLZ4T61LF8murni kecil25,000
726/05 01:04UDAYANAG16murni kecil5,000
826/05 01:04DAVI98murni besar25,000
926/05 01:04ORAK99murni kecil25,000
1026/05 01:04ORAK99murni kecil25,000
1126/05 01:04ZHI808murni kecil25,000
1226/05 01:04IYAYPAYAYmurni enam666,600
1326/05 01:04PAULWRbalak20,000
1426/05 01:03FIAZRAGILmurni kecil50,000
1526/05 01:03IW4N86murni kecil5,000
1626/05 01:03DADU78murni kecil50,000
1726/05 01:03DEWAACIL35murni besar25,000
1826/05 01:03CIKER3007murni besar5,000
1926/05 01:03CHILA10murni kecil25,000
2026/05 01:03ONEONE07murni kecil25,000
2126/05 01:03MOMOT123murni kecil5,000
2226/05 01:03KIU06murni besar25,000
2326/05 01:03ASBAK8murni kecil5,000
2426/05 01:03DWBT7341murni besar50,000
2526/05 01:03DN4DGOSOMAmurni kecil50,000
2626/05 01:02KOKAINERSmurni besar50,000
2726/05 01:02IDULSAUKImurni besar50,000
2826/05 01:02KOKAINERSmurni besar50,000
2926/05 01:02PRIMERA23murni besar50,000
3026/05 01:02DAEPObalak200,000
3126/05 01:02TINGTOOT02murni besar25,000
3226/05 01:02KW777murni besar50,000
3326/05 01:02JUPRIBOBmurni kecil25,000
3426/05 01:02BONTOK12murni kecil25,000
3526/05 01:02MOCCYmurni besar5,000
3626/05 01:02HITLEERmurni kecil25,000
3726/05 01:02MENINmurni kecil50,000
3826/05 01:01MUCHTAR197murni kecil50,000
3926/05 01:01EMAUJEPANEmurni kecil25,000
4026/05 01:01ANAA2303murni kecil5,000
4126/05 01:01ARCELLA31murni kecil5,000
4226/05 01:01UNCUI09murni kecil50,000
4326/05 01:01BEN102murni kecil50,000
4426/05 01:01KUBIM48balak200,000
4526/05 01:01DEPEGYmurni kecil50,000
4626/05 01:01ELNO1920murni besar5,000
4726/05 01:01TLENYERmurni besar5,000
4826/05 01:01DADU78balak200,000
4926/05 01:01SLANKER88balak20,000
5026/05 01:01PDIJD7RK2Nmurni kecil50,000